Hourly Data Report for March 31, 2011

HALIFAX STANFIELD INT'L A
NOVA SCOTIA

44°52'48.060" N
63°30'00.050" W
145.40 m
8202250
71395
YHZ

Download Data

Hourly Data (March 2011)
Hourly Data Report for March 31, 2011
TIME
LST
Temp Definition
°C
Dew Point Definition
°C
Rel Hum Definition
%
Precip. Amount Definition
mm

Wind Dir Definition
10's deg

Wind Spd Definition
km/h
Visibility Definition
km
Stn Press Definition
kPa
Hmdx Definition


Wind Chill Definition


Weather Definition


00:00 0.0 -6.8 60   19 6 24.1 99.59   -2 Cloudy
01:00 -0.4 -6.0 66   18 11 24.1 99.63   -4 Mostly Cloudy
02:00 -0.8 -6.3 66   18 7 24.1 99.60   -3 Mainly Clear
03:00 -1.0 -7.1 63   20 6 24.1 99.58   -3 Mainly Clear
04:00 -1.7 -6.6 69   28 7 24.1 99.62   -4 Mainly Clear
05:00 -1.5 -6.3 70   32 6 24.1 99.62   -4 Clear
06:00 -1.9 -6.3 72   29 6 24.1 99.62   -4 Clear
07:00 0.6 -4.7 68   29 7 24.1 99.66     Clear
08:00 2.7 -4.4 59   27 6 24.1 99.65     Clear
09:00 3.6 -4.1 57   31 9 24.1 99.71     Clear
10:00 6.1 -5.2 44   27 13 24.1 99.71     Mainly Clear
11:00 7.0 -6.1 39   31 13 24.1 99.67     Mainly Clear
12:00 7.6 -6.4 36   25 15 24.1 99.62     Mostly Cloudy
13:00 8.3 -7.4 32   4 15 24.1 99.58     Mostly Cloudy
14:00 9.8 -7.3 29   25 13 24.1 99.54     Mostly Cloudy
15:00 9.5 -8.5 27   30 13 24.1 99.49     Mainly Clear
16:00 10.2 -9.2 25   25 17 24.1 99.47     Mostly Cloudy
17:00 9.6 -6.7 31   27 4 24.1 99.45     Cloudy
18:00 5.9 -6.5 41   19 20 24.1 99.49     Cloudy
19:00 2.9 -6.6 50   19 9 24.1 99.56     Cloudy
20:00 0.2 -7.1 58   19 9 24.1 99.63     Clear
21:00 0.2 -6.8 59   22 7 24.1 99.61     Clear
22:00 -0.1 -6.2 63   23 11 24.1 99.61   -4 Mainly Clear
23:00 -0.4 -6.8 62   13 11 24.1 99.55   -4 Mainly Clear

Notes on Data Quality.

Legend

  • E = Estimated
  • M = Missing
  • NA = Not Available*
  • [empty] = Indicates an unobserved value
Date modified: